Fort Lewis, WA

1:28 PM PST on January 21, 2018 (GMT -0800)
Gray Army Air Field

Weather History for KGRF - February, 2014

Change the Weather History Date:

Tuesday, February 25, 2014

  Actual Average Record
Temperature  
Mean Temperature 44 °F -  
Max Temperature 50 °F 49 °F 61 °F (2016)
Min Temperature 36 °F 31 °F 18 °F (2011)
Degree Days  
Heating Degree Days 20    
Moisture  
Dew Point 39 °F    
Average Humidity 88    
Maximum Humidity 100    
Minimum Humidity 62    
Precipitation  
Precipitation 0.00 in - - ()
Sea Level Pressure  
Sea Level Pressure 30.07 in    
Wind  
Wind Speed 6 mph (NNW)    
Max Wind Speed 10 mph    
Max Gust Speed -    
Visibility 10 miles    
Events      
Averages and records for this station are not official NWS values.
T = Trace of Precipitation, MM = Missing Value Source: NWS Daily Summary

Daily Weather History Graph

Daily Weather History Graph

Search for Another Location

Airport or City:

Trip Planner

Search our weather history database for the weather conditions in past years. The results will help you decide how hot, cold, wet, or windy it might be!

Date:

Astronomy

Feb. 25, 2014 Rise Set
Actual Time 6:57 AM PST 5:49 PM PST
Civil Twilight 6:26 AM PST 6:20 PM PST
Nautical Twilight 5:51 AM PST 6:56 PM PST
Astronomical Twilight 5:16 AM PST 7:31 PM PST
Moon 4:08 AM PST (2/25) 1:51 PM PST (2/25)
Length of Visible Light 11h 54m
Length of Day
10h 52m
Waning Crescent, 17% of the Moon is Illuminated
Feb 25
Waning Crescent
Mar 1
New
Mar 8
First Quarter
Mar 16
Full
Mar 23
Last Quarter

Hourly Weather History & Observations

Time (PST) Temp. Windchill Dew Point Humidity Pressure Visibility Wind Dir Wind Speed Gust Speed Precip Events Conditions
12:48 AM 41.0 °F 36.4 °F 39.2 °F 93% 30.10 in 10.0 mi NNW 6.9 mph - N/A   Drizzle
12:58 AM 40.3 °F 35.5 °F 40.1 °F 99% 30.12 in 10.0 mi North 6.9 mph - 0.00 in   Drizzle
1:58 AM 40.1 °F 36.9 °F 39.9 °F 99% 30.12 in 10.0 mi North 4.6 mph - 0.00 in   Drizzle
2:03 AM 41.0 °F 35.8 °F 39.2 °F 93% 30.10 in 10.0 mi NNW 8.1 mph - N/A   Drizzle
2:58 AM 40.3 °F 35.5 °F 39.9 °F 99% 30.12 in 10.0 mi NNW 6.9 mph - 0.00 in   Drizzle
3:58 AM 40.3 °F 36.3 °F 40.1 °F 99% 30.12 in 10.0 mi North 5.8 mph - 0.00 in   Drizzle
4:48 AM 41.0 °F 35.8 °F 39.2 °F 93% 30.09 in 10.0 mi North 8.1 mph - N/A   Drizzle
4:58 AM 40.3 °F 34.4 °F 39.9 °F 99% 30.11 in 10.0 mi North 9.2 mph - 0.00 in   Drizzle
5:18 AM 41.0 °F 35.2 °F 39.2 °F 93% 30.09 in 10.0 mi North 9.2 mph - N/A   Drizzle
5:58 AM 39.9 °F 34.5 °F 39.7 °F 99% 30.11 in 10.0 mi NNW 8.1 mph - 0.00 in   Drizzle
6:00 AM 39.2 °F 34.2 °F 39.2 °F 100% 30.09 in 10.0 mi NNW 6.9 mph - N/A   Overcast
6:55 AM 39.2 °F 35.9 °F 39.2 °F 100% 30.09 in 10.0 mi NNW 4.6 mph - N/A   Overcast
6:58 AM 39.9 °F 35.8 °F 39.7 °F 99% 30.11 in 10.0 mi NNW 5.8 mph - 0.00 in   Overcast
7:33 AM 39.2 °F 35.9 °F 39.2 °F 100% 30.09 in 10.0 mi North 4.6 mph - N/A   Mostly Cloudy
7:43 AM 39.2 °F 34.2 °F 39.2 °F 100% 30.09 in 10.0 mi NNW 6.9 mph - N/A   Mostly Cloudy
7:48 AM 39.2 °F 33.6 °F 39.2 °F 100% 30.09 in 10.0 mi NNW 8.1 mph - N/A   Mostly Cloudy
7:58 AM 39.7 °F 35.6 °F 39.6 °F 99% 30.11 in 10.0 mi NNW 5.8 mph - N/A   Mostly Cloudy
8:58 AM 41.0 °F 35.8 °F 40.6 °F 99% 30.11 in 10.0 mi NNW 8.1 mph - N/A   Scattered Clouds
9:58 AM 43.9 °F 39.9 °F 41.0 °F 90% 30.11 in 10.0 mi NNW 6.9 mph - N/A   Mostly Cloudy
10:58 AM 44.6 °F 42.2 °F 39.6 °F 82% 30.11 in 10.0 mi North 4.6 mph - N/A   Mostly Cloudy
11:58 AM 46.2 °F 44.1 °F 40.6 °F 81% 30.10 in 10.0 mi NW 4.6 mph - N/A   Mostly Cloudy
12:58 PM 49.1 °F - 40.6 °F 73% 30.08 in 10.0 mi NNW 4.6 mph - N/A   Partly Cloudy
1:58 PM 50.2 °F - 39.7 °F 67% 30.06 in 10.0 mi North 6.9 mph - N/A   Mostly Cloudy
2:58 PM 50.9 °F - 38.8 °F 63% 30.05 in 10.0 mi North 10.4 mph - N/A   Clear
3:58 PM 50.4 °F - 37.9 °F 62% 30.03 in 10.0 mi NNW 6.9 mph - N/A   Scattered Clouds
4:58 PM 49.1 °F - 38.5 °F 67% 30.02 in 10.0 mi NNW 4.6 mph - N/A   Clear
5:58 PM 47.3 °F - 38.8 °F 72% 30.02 in 10.0 mi North 6.9 mph - N/A   Clear
6:58 PM 45.5 °F 43.2 °F 37.9 °F 75% 30.01 in 10.0 mi NNW 4.6 mph - N/A   Clear
7:58 PM 44.8 °F 43.3 °F 36.5 °F 73% 30.01 in 10.0 mi NNW 3.5 mph - N/A   Clear
8:58 PM 43.5 °F 40.9 °F 35.8 °F 74% 30.01 in 10.0 mi NNW 4.6 mph - N/A   Mostly Cloudy
9:58 PM 42.6 °F - 36.0 °F 77% 30.00 in 10.0 mi West 2.3 mph - N/A   Clear
10:58 PM 39.9 °F - 39.0 °F 97% 29.99 in 10.0 mi NE 2.3 mph - N/A   Clear
11:58 PM 36.3 °F 33.7 °F 36.1 °F 99% 29.99 in 10.0 mi SSE 3.5 mph - N/A   Partly Cloudy